DW2147 Weather Reports


Display with metric or nautical units.
time (UTC)temp
F
wind
direction
speed
MPH
gust
MPH
rain 1hr
in
rain 24hr
in
rain mn
in
humidity
%
barometer
mb
20260903194758 92 0 4.0 9.0 0.00 0.04 0.04 57 1015.5
20260903194253 92 0 3.0 8.0 0.00 0.04 0.04 58 1015.5
20260903193748 91 234 4.0 12.0 0.00 0.04 0.04 58 1015.6
20260903193249 91 202 4.0 12.0 0.00 0.04 0.04 57 1015.7
20260903192747 91 0 4.0 10.0 0.00 0.04 0.04 58 1015.7
20260903192520 91 0 6.0 12.0 0.00 0.04 0.04 58 1015.9
20260903191749 91 0 6.0 12.0 0.00 0.04 0.04 58 1016.0
20260903191248 91 0 5.0 12.0 0.00 0.04 0.04 58 1016.1
20260903191016 91 0 5.0 11.0 0.00 0.04 0.04 59 1016.2
20260903190244 90 0 7.0 13.0 0.00 0.04 0.04 57 1016.4
20260903185743 91 0 7.0 16.0 0.00 0.04 0.04 58 1016.4
20260903185244 91 0 6.0 16.0 0.00 0.04 0.04 58 1016.5
20260903184744 91 193 5.0 12.0 0.00 0.04 0.04 58 1016.6
20260903184245 90 0 6.0 12.0 0.00 0.04 0.04 58 1016.7
20260903183739 90 0 6.0 12.0 0.00 0.04 0.04 57 1016.7
20260903183512 90 0 6.0 12.0 0.00 0.04 0.04 57 1016.9
20260903182741 90 0 5.0 11.0 0.00 0.04 0.04 56 1017.0
20260903182239 90 0 4.0 10.0 0.00 0.04 0.04 55 1017.2
20260903181740 90 0 4.0 10.0 0.00 0.04 0.04 59 1017.1
20260903181241 89 0 5.0 10.0 0.00 0.04 0.04 56 1017.2
20260903180741 89 0 5.0 10.0 0.00 0.04 0.04 56 1017.2
20260903180239 89 0 5.0 12.0 0.00 0.04 0.04 56 1017.4
20260903175738 89 0 5.0 12.0 0.00 0.04 0.04 57 1017.3
20260903175237 89 0 6.0 12.0 0.00 0.04 0.04 56 1017.3
20260903174738 89 0 6.0 12.0 0.00 0.04 0.04 56 1017.4
20260903174238 89 0 5.0 13.0 0.00 0.04 0.04 57 1017.4
20260903173735 89 0 5.0 13.0 0.00 0.04 0.04 56 1017.5
20260903173235 89 0 4.0 9.0 0.00 0.04 0.04 59 1017.5
20260903172736 88 0 4.0 10.0 0.00 0.04 0.04 58 1017.5
20260903172235 88 0 4.0 10.0 0.00 0.04 0.04 58 1017.5
20260903171735 88 0 4.0 8.0 0.00 0.04 0.04 57 1017.6
20260903171236 88 0 5.0 9.0 0.00 0.04 0.04 60 1017.7
20260903170739 87 0 5.0 10.0 0.00 0.04 0.04 60 1017.7
20260903170231 87 0 4.0 10.0 0.00 0.04 0.04 58 1017.8
20260903165732 87 0 3.0 8.0 0.00 0.04 0.04 60 1017.9
20260903165229 86 0 4.0 8.0 0.00 0.04 0.04 59 1018.2
20260903164730 86 0 4.0 9.0 0.00 0.04 0.04 58 1018.3
20260903164230 86 0 5.0 11.0 0.00 0.04 0.04 60 1018.3
20260903163729 86 0 5.0 11.0 0.00 0.04 0.04 62 1018.4
20260903163458 86 0 4.0 9.0 0.00 0.04 0.04 61 1018.3
20260903162728 86 0 3.0 9.0 0.00 0.04 0.04 62 1018.3
20260903162229 85 0 2.0 9.0 0.00 0.04 0.04 63 1018.6
20260903161727 85 55 2.0 5.0 0.00 0.04 0.04 61 1018.6
20260903161228 84 0 2.0 5.0 0.00 0.04 0.04 62 1018.9
20260903160726 84 150 1.0 4.0 0.00 0.04 0.04 62 1018.9
20260903160226 83 0 2.0 6.0 0.00 0.04 0.04 62 1019.0
20260903155951 83 0 3.0 6.0 0.00 0.04 0.04 63 1018.9
20260903155219 82 0 1.0 6.0 0.00 0.04 0.04 65 1018.9
20260903154720 81 22 2.0 4.0 0.00 0.04 0.04 64 1019.0
20260903154228 81 178 2.0 5.0 0.00 0.04 0.04 65 1019.2
20260903154220 81 0 2.0 4.0 0.00 0.04 0.04 64 1019.0
20260903153218 80 178 2.0 5.0 0.00 0.04 0.04 63 1019.2
20260903152714 80 15 1.0 5.0 0.01 0.04 0.04 64 1019.2
20260903152214 79 0 1.0 3.0 0.03 0.04 0.04 64 1019.3
20260903151715 78 347 1.0 4.0 0.04 0.04 0.04 65 1019.3
20260903151443 78 100 2.0 4.0 0.04 0.04 0.04 67 1019.4
20260903150713 77 69 2.0 7.0 0.04 0.04 0.04 68 1019.5
20260903150212 76 104 2.0 7.0 0.04 0.04 0.04 68 1019.7
20260903145709 76 46 1.0 4.0 0.04 0.04 0.04 69 1019.5
20260903145213 76 32 1.0 2.0 0.04 0.04 0.04 70 1019.6
20260903145209 76 32 0.0 2.0 0.04 0.04 0.04 70 1019.6
20260903144209 75 0 1.0 2.0 0.04 0.04 0.04 70 1019.7
20260903143937 75 40 0.0 2.0 0.04 0.04 0.04 70 1019.7
20260903143209 75 42 0.0 2.0 0.04 0.04 0.04 69 1019.7
20260903142701 75 20 1.0 3.0 0.03 0.03 0.03 69 1019.8
20260903142202 75 19 1.0 3.0 0.01 0.01 0.02 68 1019.8
20260903141701 76 20 1.0 4.0 0.00 0.00 0.00 67 1019.8
20260903141200 76 0 1.0 4.0 0.00 0.00 0.00 66 1019.7
20260903140700 76 44 2.0 5.0 0.00 0.00 0.00 66 1019.5
20260903140159 76 29 2.0 5.0 0.00 0.00 0.00 66 1019.5
20260903135653 76 37 1.0 3.0 0.00 0.00 0.00 66 1019.4
20260903135152 77 0 1.0 3.0 0.00 0.00 0.00 66 1019.2
20260903134650 77 81 1.0 6.0 0.00 0.00 0.00 66 1019.3
20260903134148 77 113 1.0 6.0 0.00 0.00 0.00 66 1019.2
20260903133648 77 58 1.0 4.0 0.00 0.00 0.00 66 1019.4
20260903133143 77 40 1.0 4.0 0.00 0.00 0.00 67 1019.4
20260903132644 77 40 2.0 9.0 0.00 0.00 0.00 68 1019.4
20260903132145 78 0 4.0 14.0 0.00 0.00 0.00 68 1019.4
20260903131642 78 0 6.0 14.0 0.00 0.00 0.00 68 1019.2
20260903131142 78 0 4.0 12.0 0.00 0.00 0.00 68 1019.1
20260903130914 78 0 2.0 5.0 0.00 0.00 0.00 68 1018.9
20260903130137 78 0 3.0 4.0 0.00 0.00 0.00 69 1018.5
20260903125638 77 0 3.0 5.0 0.00 0.00 0.00 68 1018.5
20260903125137 77 0 3.0 5.0 0.00 0.00 0.00 69 1018.6
20260903124909 77 0 3.0 5.0 0.00 0.00 0.00 69 1018.5
20260903124408 77 0 3.0 6.0 0.00 0.00 0.00 69 1018.6
20260903123638 77 0 3.0 6.0 0.00 0.00 0.00 69 1018.5
20260903123129 77 0 2.0 6.0 0.00 0.00 0.00 69 1018.5
20260903122628 77 0 2.0 5.0 0.00 0.00 0.00 70 1018.4
20260903122128 77 222 2.0 5.0 0.00 0.00 0.00 70 1018.3
20260903121630 76 0 2.0 4.0 0.00 0.00 0.00 70 1018.5
20260903121400 76 0 3.0 5.0 0.00 0.00 0.00 70 1018.6
20260903120633 76 0 3.0 5.0 0.00 0.00 0.00 70 1018.5
20260903120628 76 0 3.0 5.0 0.00 0.00 0.00 70 1018.5
20260903115857 76 0 3.0 5.0 0.00 0.00 0.00 70 1018.5
20260903115125 76 0 2.0 5.0 0.00 0.00 0.00 70 1018.4
20260903114624 76 189 1.0 5.0 0.00 0.00 0.00 71 1018.4
20260903114124 76 0 1.0 4.0 0.00 0.00 0.00 70 1018.3
20260903113624 76 0 0.0 3.0 0.00 0.00 0.00 70 1018.3
20260903113122 76 0 0.0 3.0 0.00 0.00 0.00 70 1018.3
20260903112619 76 0 0.0 0.0 0.00 0.00 0.00 70 1018.3
20260903112117 76 0 0.0 0.0 0.00 0.00 0.00 70 1018.3
20260903111614 76 0 0.0 0.0 0.00 0.00 0.00 70 1018.2
20260903111115 76 0 0.0 2.0 0.00 0.00 0.00 70 1018.3
20260903110616 76 0 1.0 2.0 0.00 0.00 0.00 70 1018.3
20260903110114 76 0 2.0 5.0 0.00 0.00 0.00 70 1018.2
20260903105612 76 186 2.0 9.0 0.00 0.00 0.00 70 1018.1
20260903105112 76 0 2.0 9.0 0.00 0.00 0.00 70 1018.1
20260903104613 76 0 3.0 6.0 0.00 0.00 0.00 70 1017.8
20260903104112 76 0 3.0 6.0 0.00 0.00 0.00 70 1017.7
20260903103843 76 0 3.0 8.0 0.00 0.00 0.00 70 1017.5
20260903103114 76 0 3.0 8.0 0.00 0.00 0.00 70 1017.6
20260903102614 76 0 2.0 6.0 0.00 0.00 0.00 70 1017.4
20260903102338 76 0 2.0 5.0 0.00 0.00 0.00 70 1017.4
20260903101602 76 0 2.0 8.0 0.00 0.00 0.00 70 1017.3
20260903101056 76 0 3.0 8.0 0.00 0.00 0.00 70 1017.2
20260903100558 76 0 4.0 10.0 0.00 0.00 0.00 70 1017.1
20260903100327 76 0 4.0 10.0 0.00 0.00 0.00 70 1017.2
20260903095557 76 0 4.0 10.0 0.00 0.00 0.00 70 1017.1
20260903095056 76 0 4.0 10.0 0.00 0.00 0.00 70 1017.1
20260903094558 76 0 5.0 10.0 0.00 0.00 0.00 71 1017.0
20260903094052 76 0 4.0 10.0 0.00 0.00 0.00 71 1017.0
20260903093552 76 0 4.0 10.0 0.00 0.00 0.00 71 1016.9
20260903093052 76 0 4.0 10.0 0.00 0.00 0.00 71 1016.8
20260903092553 76 0 4.0 10.0 0.00 0.00 0.00 71 1016.9
20260903092325 76 0 4.0 8.0 0.00 0.00 0.00 71 1016.9
20260903091554 76 0 4.0 8.0 0.00 0.00 0.00 71 1016.9
20260903091048 76 0 4.0 9.0 0.00 0.00 0.00 71 1017.0
20260903090550 76 0 4.0 9.0 0.00 0.00 0.00 71 1016.8
20260903090048 76 0 3.0 6.0 0.00 0.00 0.00 71 1017.0
20260903085548 76 0 3.0 6.0 0.00 0.00 0.00 71 1017.0
20260903085049 76 0 3.0 8.0 0.00 0.00 0.00 71 1017.0
20260903084550 76 0 3.0 8.0 0.00 0.00 0.00 71 1017.1
20260903084316 76 0 3.0 9.0 0.00 0.00 0.00 71 1017.0
20260903083546 76 0 3.0 9.0 0.00 0.00 0.00 72 1016.9
20260903083045 76 0 4.0 9.0 0.00 0.00 0.00 72 1017.0
20260903082817 76 0 4.0 9.0 0.00 0.00 0.00 72 1016.9
20260903082044 76 0 4.0 8.0 0.00 0.00 0.00 71 1017.0
20260903081546 76 0 4.0 8.0 0.00 0.00 0.00 71 1017.0
20260903081041 76 0 4.0 9.0 0.00 0.00 0.00 71 1017.0
20260903080543 77 0 4.0 9.0 0.00 0.00 0.00 71 1017.1
20260903080039 77 0 5.0 10.0 0.00 0.00 0.00 71 1016.9
20260903075539 77 0 5.0 11.0 0.00 0.00 0.00 71 1017.1
20260903075037 77 0 4.0 11.0 0.00 0.00 0.00 71 1017.1
20260903074537 77 0 4.0 12.0 0.00 0.00 0.00 71 1017.0
20260903074038 77 0 5.0 12.0 0.00 0.00 0.00 71 1017.0
20260903073537 77 0 4.0 9.0 0.00 0.00 0.00 71 1017.0
20260903073309 77 0 4.0 8.0 0.00 0.00 0.00 71 1017.0
20260903072536 77 0 4.0 10.0 0.00 0.00 0.00 71 1016.9
20260903072031 77 0 4.0 10.0 0.00 0.00 0.00 71 1016.9
20260903071531 77 0 4.0 10.0 0.00 0.00 0.00 71 1017.0
20260903071031 77 0 4.0 10.0 0.00 0.00 0.00 71 1017.0
20260903070530 77 0 4.0 9.0 0.00 0.00 0.00 71 1017.0
20260903070030 77 0 4.0 8.0 0.00 0.00 0.00 71 1017.0
20260903065522 77 0 3.0 6.0 0.00 0.00 0.00 71 1017.1
20260903065251 77 0 3.0 8.0 0.00 0.00 0.00 71 1017.1
20260903064518 77 0 4.0 8.0 0.00 0.00 0.00 71 1017.1
20260903064247 77 0 3.0 6.0 0.00 0.00 0.00 71 1017.0
20260903063752 77 0 3.0 5.0 0.00 0.00 0.00 71 1017.1
20260903063513 77 0 3.0 6.0 0.00 0.00 0.00 71 1017.1
20260903062511 78 0 3.0 8.0 0.00 0.00 0.00 71 1016.9
20260903062010 78 0 2.0 8.0 0.00 0.00 0.00 71 1017.2
20260903061519 78 0 3.0 8.0 0.00 0.00 0.00 71 1017.1
20260903061511 78 0 2.0 5.0 0.00 0.00 0.00 71 1017.1
20260903060509 78 0 4.0 8.0 0.00 0.00 0.00 71 1017.1
20260903060002 78 0 3.0 6.0 0.00 0.00 0.00 70 1017.1
20260903055501 78 0 3.0 6.0 0.00 0.00 0.00 70 1017.0
20260903055004 78 0 3.0 6.0 0.00 0.00 0.00 70 1017.1
20260903054501 78 0 3.0 8.0 0.00 0.00 0.00 70 1017.1
20260903054000 78 0 3.0 8.0 0.00 0.00 0.00 70 1017.2
20260903053500 78 0 3.0 6.0 0.00 0.00 0.00 70 1017.1
20260903052956 78 0 3.0 6.0 0.00 0.00 0.00 70 1017.0
20260903052457 79 0 3.0 6.0 0.00 0.00 0.00 69 1017.1
20260903052229 79 0 3.0 6.0 0.00 0.00 0.00 69 1017.0
20260903051457 79 0 3.0 6.0 0.00 0.00 0.00 69 1017.0
20260903051227 79 0 3.0 9.0 0.00 0.00 0.00 69 1016.9
20260903050728 79 0 3.0 9.0 0.00 0.00 0.00 69 1017.0
20260903045950 79 0 3.0 8.0 0.00 0.00 0.00 70 1016.9
20260903045448 79 0 2.0 5.0 0.00 0.00 0.00 70 1016.8
20260903044949 79 0 2.0 8.0 0.00 0.00 0.00 70 1016.8
20260903044449 79 0 2.0 8.0 0.00 0.00 0.00 70 1016.8
20260903043949 79 0 2.0 5.0 0.00 0.00 0.00 70 1016.6
20260903043449 79 0 2.0 5.0 0.00 0.00 0.00 70 1016.7
20260903042943 79 0 2.0 5.0 0.00 0.00 0.00 70 1016.7
20260903042441 79 0 2.0 4.0 0.00 0.00 0.00 70 1016.7
20260903041939 79 0 2.0 4.0 0.00 0.00 0.00 70 1016.8
20260903041441 79 0 2.0 5.0 0.00 0.00 0.00 70 1016.8
20260903041437 79 0 2.0 4.0 0.00 0.00 0.00 70 1016.9
20260903040431 79 0 2.0 6.0 0.00 0.00 0.00 70 1016.8
20260903035928 79 0 2.0 6.0 0.00 0.00 0.00 70 1016.8
20260903035657 79 209 2.0 4.0 0.00 0.00 0.00 70 1016.9
20260903035545 80 0 2.0 4.0 0.00 0.00 0.00 70 1016.9
20260903034427 80 0 2.0 4.0 0.00 0.00 0.00 70 1017.1
20260903033930 80 0 2.0 4.0 0.00 0.00 0.00 70 1017.1
20260903033423 80 0 2.0 4.0 0.00 0.00 0.00 70 1017.0
20260903032924 80 0 2.0 4.0 0.00 0.00 0.00 70 1017.1
20260903032420 80 0 2.0 5.0 0.00 0.00 0.00 70 1017.1
20260903031921 80 0 2.0 6.0 0.00 0.00 0.00 70 1017.2
20260903031421 80 0 2.0 6.0 0.00 0.00 0.00 70 1017.2
20260903030920 80 0 3.0 6.0 0.00 0.00 0.00 70 1017.2
20260903030418 80 0 3.0 6.0 0.00 0.00 0.00 70 1017.1
20260903025919 80 0 3.0 6.0 0.00 0.00 0.00 70 1017.2
20260903025419 80 0 2.0 5.0 0.00 0.00 0.00 70 1017.1
20260903024917 80 0 2.0 6.0 0.00 0.00 0.00 71 1017.0
20260903024415 80 248 3.0 6.0 0.00 0.00 0.00 71 1017.2
20260903023915 80 0 2.0 5.0 0.00 0.00 0.00 71 1017.2
20260903023643 80 0 2.0 4.0 0.00 0.00 0.00 71 1017.3
20260903022911 80 0 2.0 5.0 0.00 0.00 0.00 71 1017.3
20260903022414 81 0 3.0 8.0 0.00 0.00 0.00 71 1017.4
20260903022410 81 0 3.0 5.0 0.00 0.00 0.00 71 1017.4
20260903021409 81 0 3.0 8.0 0.00 0.00 0.00 71 1017.4
20260903020911 81 0 3.0 8.0 0.00 0.00 0.00 71 1017.4
20260903020403 81 0 3.0 8.0 0.00 0.00 0.00 71 1017.3
20260903015903 81 0 3.0 6.0 0.00 0.00 0.00 70 1017.2
20260903015403 81 0 3.0 6.0 0.00 0.00 0.00 70 1017.3
20260903014902 81 0 3.0 8.0 0.00 0.00 0.00 70 1017.3
20260903014404 82 0 3.0 8.0 0.00 0.00 0.00 70 1017.3
20260903013903 82 0 2.0 6.0 0.00 0.00 0.00 70 1017.4
20260903013400 82 241 2.0 5.0 0.00 0.00 0.00 70 1017.5
20260903013133 82 0 2.0 5.0 0.00 0.00 0.00 70 1017.3
20260903012633 82 0 2.0 4.0 0.00 0.00 0.00 70 1017.4
20260903011859 82 229 2.0 4.0 0.00 0.00 0.00 70 1017.5
20260903011357 83 0 2.0 4.0 0.00 0.00 0.00 69 1017.3
20260903010856 83 0 2.0 4.0 0.00 0.00 0.00 69 1017.4
20260903010355 83 210 2.0 4.0 0.00 0.00 0.00 69 1017.4
20260903005853 83 0 1.0 4.0 0.00 0.00 0.00 68 1017.5
20260903005353 83 0 1.0 3.0 0.00 0.00 0.00 68 1017.4
20260903004854 84 0 1.0 3.0 0.00 0.00 0.00 68 1017.4
20260903004351 84 0 1.0 3.0 0.00 0.00 0.00 67 1017.2
20260903003854 84 0 2.0 3.0 0.00 0.00 0.00 67 1017.0
20260903003345 84 0 2.0 4.0 0.00 0.00 0.00 67 1017.1
20260903002843 84 0 2.0 4.0 0.00 0.00 0.00 67 1017.1
20260903002612 84 0 2.0 4.0 0.00 0.00 0.00 67 1017.1
20260903001839 85 0 2.0 4.0 0.00 0.00 0.00 66 1017.0
20260903001341 85 0 2.0 4.0 0.00 0.00 0.00 66 1017.0
20260903001106 85 0 2.0 4.0 0.00 0.00 0.00 66 1017.0
20260903000334 85 0 2.0 4.0 0.00 0.00 0.00 65 1017.0
20260902235833 86 0 2.0 4.0 0.00 0.00 0.00 65 1017.1
20260902235335 86 0 3.0 5.0 0.00 0.00 0.00 65 1017.0
20260902234833 86 0 3.0 5.0 0.00 0.00 0.00 65 1017.0
20260902234333 86 0 3.0 5.0 0.00 0.00 0.00 64 1016.9
20260902233827 87 0 3.0 5.0 0.00 0.00 0.00 64 1016.8
20260902233328 87 0 2.0 5.0 0.00 0.00 0.00 64 1016.9
20260902233100 87 0 3.0 5.0 0.00 0.00 0.00 64 1016.9
20260902232329 87 0 3.0 5.0 0.00 0.00 0.00 63 1016.9
20260902231827 88 0 2.0 4.0 0.00 0.00 0.00 63 1016.8
20260902231559 88 0 3.0 8.0 0.00 0.00 0.00 62 1016.7
20260902230823 88 0 3.0 8.0 0.00 0.00 0.00 61 1016.7
20260902230322 89 0 3.0 6.0 0.00 0.00 0.00 61 1016.8
20260902225823 89 0 3.0 6.0 0.00 0.00 0.00 61 1016.8
20260902225322 89 0 3.0 6.0 0.00 0.00 0.00 60 1016.6
20260902224821 89 0 3.0 8.0 0.00 0.00 0.00 59 1016.7
20260902224323 90 0 2.0 8.0 0.00 0.00 0.00 60 1016.6
20260902223813 90 0 3.0 10.0 0.00 0.00 0.00 59 1016.7
20260902223312 90 196 3.0 10.0 0.00 0.00 0.00 58 1016.7
20260902222812 90 0 3.0 8.0 0.00 0.00 0.00 58 1016.7
20260902222313 90 0 3.0 8.0 0.00 0.00 0.00 58 1016.7
20260902222043 91 0 4.0 10.0 0.00 0.00 0.00 57 1016.8
20260902221314 91 0 3.0 10.0 0.00 0.00 0.00 57 1016.8
20260902220805 91 0 3.0 8.0 0.00 0.00 0.00 58 1016.9
20260902220305 91 0 3.0 6.0 0.00 0.00 0.00 57 1016.9
20260902215805 91 0 3.0 12.0 0.00 0.00 0.00 57 1017.0
20260902215306 91 0 5.0 12.0 0.00 0.00 0.00 57 1017.0
20260902214805 92 0 4.0 11.0 0.00 0.00 0.00 56 1017.1
20260902214307 92 0 4.0 10.0 0.00 0.00 0.00 56 1017.0
20260902213806 92 0 5.0 11.0 0.00 0.00 0.00 56 1017.0
20260902213301 92 0 5.0 11.0 0.00 0.00 0.00 56 1017.0
20260902213032 92 0 4.0 9.0 0.00 0.00 0.00 56 1016.9
20260902212305 92 0 3.0 9.0 0.00 0.00 0.00 57 1016.9
20260902211802 92 0 3.0 9.0 0.00 0.00 0.00 57 1016.9
20260902211302 92 0 4.0 11.0 0.00 0.00 0.00 57 1017.0
20260902210803 92 178 5.0 11.0 0.00 0.00 0.00 55 1016.9
20260902210258 93 0 5.0 12.0 0.00 0.00 0.00 53 1017.0
20260902205759 93 0 4.0 12.0 0.00 0.00 0.00 53 1017.1
20260902205259 93 0 3.0 9.0 0.00 0.00 0.00 55 1017.1
20260902204757 93 0 4.0 12.0 0.00 0.00 0.00 52 1017.2
20260902204257 93 0 3.0 12.0 0.00 0.00 0.00 53 1017.1
20260902204030 93 163 5.0 12.0 0.00 0.00 0.00 55 1017.0
20260902203253 92 0 5.0 12.0 0.00 0.00 0.00 54 1017.1
20260902202753 93 0 4.0 11.0 0.00 0.00 0.00 53 1017.1
20260902202255 93 0 5.0 11.0 0.00 0.00 0.00 53 1017.1
20260902201754 92 0 6.0 15.0 0.00 0.00 0.00 55 1017.1
20260902201254 92 0 5.0 15.0 0.00 0.00 0.00 54 1017.1
20260902200755 92 0 4.0 12.0 0.00 0.00 0.00 55 1017.2
20260902200255 92 0 4.0 11.0 0.00 0.00 0.00 54 1017.2
20260902195753 92 0 3.0 9.0 0.00 0.00 0.00 53 1017.4
20260902195253 92 28 3.0 9.0 0.00 0.00 0.00 53 1017.6